Weather History for KFLO - May, 2013

Change the Weather History Date:

Friday, May 3, 2013

  Actual Average Record
Temperature  
Mean Temperature 63 °F 68 °F  
Max Temperature 70 °F 80 °F 94 °F (1959)
Min Temperature 55 °F 55 °F 42 °F (1963)
Degree Days  
Heating Degree Days 2 2  
Month to date heating degree days 3 6  
Since 1 July heating degree days 2314 2506  
Cooling Degree Days 0 4  
Month to date cooling degree days 0 12  
Year to date cooling degree days 95 108  
Growing Degree Days 12 (Base 50)    
Moisture  
Dew Point 55 °F    
Average Humidity 77    
Maximum Humidity 93    
Minimum Humidity 61    
Precipitation  
Precipitation 0.04 in 0.09 in 1.06 in (2007)
Month to date precipitation 0.19 0.26  
Year to date precipitation 14.16 12.36  
Sea Level Pressure  
Sea Level Pressure 30.13 in    
Wind  
Wind Speed 12 mph (ENE)    
Max Wind Speed 23 mph    
Max Gust Speed 30 mph    
Visibility 9 miles    
Events Rain    
T = Trace of Precipitation, MM = Missing Value Source: NWS Daily Summary

Daily Weather History Graph

Daily Weather History Graph

Search for Another Location

Airport or City:

Trip Planner

Search our weather history database for the weather conditions in past years. The results will help you decide how hot, cold, wet, or windy it might be!

Date:

Astronomy

May. 03, 2013 Rise Set
Actual Time 6:27 AM EDT 8:04 PM EDT
Civil Twilight 6:00 AM EDT 8:31 PM EDT
Nautical Twilight 5:28 AM EDT 9:04 PM EDT
Astronomical Twilight 4:53 AM EDT 9:38 PM EDT
Moon 2:33 AM EDT (5/3) 2:13 PM EDT (5/3)
Length of Visible Light 14h 31m
Length of Day
13h 37m
Last Quarter, 37% of the Moon is Illuminated
May 3
Last Quarter
May 9
New
May 18
First Quarter
May 25
Full
May 31
Last Quarter

Hourly Weather History & Observations

Time (EDT) Temp. Dew Point Humidity Pressure Visibility Wind Dir Wind Speed Gust Speed Precip Events Conditions
12:53 AM 60.1 °F 55.9 °F 86% 30.17 in 10.0 mi NE 9.2 mph - N/A   Clear
1:53 AM 59.0 °F 55.0 °F 87% 30.16 in 10.0 mi NE 9.2 mph - N/A   Clear
2:53 AM 57.0 °F 53.1 °F 87% 30.14 in 10.0 mi NE 10.4 mph - N/A   Clear
3:53 AM 55.9 °F 53.1 °F 90% 30.13 in 10.0 mi NE 9.2 mph - N/A   Clear
4:45 AM 57.2 °F 53.6 °F 88% 30.14 in 10.0 mi NE 8.1 mph - N/A   Overcast
4:53 AM 57.0 °F 53.1 °F 87% 30.13 in 10.0 mi NNE 8.1 mph - N/A   Overcast
5:53 AM 55.9 °F 53.1 °F 90% 30.12 in 10.0 mi NE 11.5 mph 20.7 mph N/A   Overcast
6:21 AM 55.4 °F 53.6 °F 94% 30.14 in 10.0 mi NE 9.2 mph - N/A   Overcast
6:53 AM 55.9 °F 53.1 °F 90% 30.14 in 10.0 mi NE 11.5 mph - N/A   Overcast
7:53 AM 55.9 °F 54.0 °F 93% 30.15 in 10.0 mi NE 12.7 mph - 0.00 in   Overcast
8:53 AM 59.0 °F 54.0 °F 83% 30.16 in 10.0 mi NE 11.5 mph - N/A   Overcast
9:31 AM 60.8 °F 55.4 °F 82% 30.17 in 10.0 mi ENE 16.1 mph 23.0 mph N/A   Overcast
9:53 AM 60.1 °F 55.0 °F 83% 30.17 in 10.0 mi ENE 13.8 mph - N/A   Overcast
10:53 AM 62.1 °F 55.9 °F 80% 30.17 in 10.0 mi ENE 15.0 mph 21.9 mph N/A   Overcast
11:53 AM 66.0 °F 55.9 °F 70% 30.16 in 10.0 mi ENE 15.0 mph - N/A   Overcast
11:56 AM 64.4 °F 55.4 °F 73% 30.16 in 10.0 mi ENE 12.7 mph - N/A   Mostly Cloudy
12:46 PM 64.4 °F 55.4 °F 73% 30.16 in 10.0 mi East 10.4 mph - 0.00 in   Overcast
12:53 PM 66.0 °F 55.9 °F 70% 30.15 in 10.0 mi ENE 12.7 mph - 0.00 in   Mostly Cloudy
1:19 PM 66.2 °F 55.4 °F 68% 30.15 in 10.0 mi ENE 12.7 mph 23.0 mph N/A   Mostly Cloudy
1:32 PM 66.2 °F 55.4 °F 68% 30.14 in 10.0 mi ENE 17.3 mph 24.2 mph N/A   Overcast
1:53 PM 69.1 °F 55.9 °F 63% 30.13 in 10.0 mi NE 18.4 mph 27.6 mph N/A   Overcast
2:53 PM 63.0 °F 57.9 °F 84% 30.14 in 4.0 mi East 18.4 mph 28.8 mph 0.01 in Rain Rain
2:55 PM 62.6 °F 57.2 °F 82% 30.15 in 1.8 mi East 17.3 mph 28.8 mph 0.01 in Rain Rain
3:03 PM 62.6 °F 59.0 °F 88% 30.15 in 2.0 mi East 15.0 mph 19.6 mph 0.02 in Rain Light Rain
3:20 PM 62.6 °F 60.8 °F 94% 30.13 in 5.0 mi ENE 13.8 mph - 0.03 in Rain Light Rain
3:33 PM 62.6 °F 60.8 °F 94% 30.12 in 10.0 mi ENE 11.5 mph - 0.03 in   Overcast
3:42 PM 62.6 °F 60.8 °F 94% 30.12 in 10.0 mi East 8.1 mph - 0.03 in   Overcast
3:53 PM 64.9 °F 61.0 °F 87% 30.11 in 10.0 mi East 5.8 mph - 0.03 in   Overcast
4:53 PM 66.0 °F 59.0 °F 78% 30.11 in 10.0 mi East 6.9 mph - N/A   Overcast
5:53 PM 68.0 °F 59.0 °F 73% 30.09 in 10.0 mi East 6.9 mph - N/A   Mostly Cloudy
6:53 PM 66.9 °F 57.9 °F 73% 30.07 in 10.0 mi NE 5.8 mph - N/A   Mostly Cloudy
7:53 PM 64.9 °F 59.0 °F 81% 30.08 in 10.0 mi East 9.2 mph - N/A   Mostly Cloudy
8:53 PM 63.0 °F 53.1 °F 70% 30.09 in 10.0 mi East 9.2 mph - N/A   Partly Cloudy
9:53 PM 62.1 °F 53.1 °F 72% 30.11 in 10.0 mi East 11.5 mph - N/A   Mostly Cloudy
10:18 PM 60.8 °F 53.6 °F 77% 30.13 in 10.0 mi East 13.8 mph 19.6 mph N/A   Mostly Cloudy
10:43 PM 60.8 °F 48.2 °F 63% 30.12 in 10.0 mi East 19.6 mph 25.3 mph N/A   Scattered Clouds
10:53 PM 59.0 °F 48.9 °F 69% 30.12 in 10.0 mi East 16.1 mph 24.2 mph N/A   Mostly Cloudy
11:53 PM 57.9 °F 46.9 °F 67% 30.11 in 10.0 mi ENE 17.3 mph 20.7 mph N/A   Overcast